User: anonymous   Login
Location: Vanderbilt Beach
(26.2700°N, 81.7900°W)
Time: 18:36:00
(UTC-05:00)
Language:

SO-50 - Orbit

View from above orbital plane
View from above orbital plane
View from above satellite
View from above satellite

Ground track
Ground track

The orbit data is extracted from the following two-line orbital elements,

1 27607U 02058C   20332.35470651  .00000099  00000-0  34592-4 0  9993
2 27607  64.5555 236.3053 0030792 115.1513 245.2789 14.75682928964899
Epoch (UTC): 27 November 2020 08:30:46
Eccentricity: 0.0030792
inclination: 64.5555°
perigee height: 621 km
apogee height: 664 km
right ascension of ascending node: 236.3053°
argument of perigee: 115.1513°
revolutions per day: 14.75682928
mean anomaly at epoch: 245.2789°
orbit number at epoch: 96489

The dashed part of the orbit path shows where the satellite is in the earth's shadow,  

DLR